Weather History for 15420 - March, 2009

Change the Weather History Date:

Wednesday, March 18, 2009

  Actual Average Record
Temperature  
Mean Temperature 40 °F -  
Max Temperature 46 °F 59 °F - ()
Min Temperature 35 °F 38 °F - ()
Degree Days  
Heating Degree Days 24    
Moisture  
Dew Point 38 °F    
Average Humidity 94    
Maximum Humidity 100    
Minimum Humidity 63    
Precipitation  
Precipitation 0.08 in 0.06 in - ()
Sea Level Pressure  
Sea Level Pressure 29.92 in    
Wind  
Wind Speed 6 mph ()    
Max Wind Speed 15 mph    
Max Gust Speed -    
Visibility 5.3 miles    
Events Rain , Thunderstorm    
T = Trace of Precipitation, MM = Missing Value Source: Averaged Metar Reports

Daily Weather History Graph

Daily Weather History Graph

Search for Another Location

Airport or City:

Trip Planner

Search our weather history database for the weather conditions in past years. The results will help you decide how hot, cold, wet, or windy it might be!

Date:

Astronomy

Mar. 18, 2009 Rise Set
Actual Time 6:22 AM EET 6:25 PM EET
Civil Twilight 5:53 AM EET 6:54 PM EET
Nautical Twilight 5:19 AM EET 7:28 PM EET
Astronomical Twilight 4:45 AM EET 8:03 PM EET
Moon 1:44 AM EET (3/18) 10:01 AM EET (3/18)
Length of Visible Light 13h 00m
Length of Day
12h 02m
Waning Gibbous, 53% of the Moon is Illuminated
Mar 18
Waning Gibbous
Mar 18
Last Quarter
Mar 26
New
Apr 2
First Quarter
Apr 9
Full

Hourly Weather History & Observations

Time (EET) Temp. Windchill Dew Point Humidity Pressure Visibility Wind Dir Wind Speed Gust Speed Precip Events Conditions
12:00 AM 38 °F - 36 °F 92% 30.15 in 6 mi SW 6.7 mph - -   Partly Cloudy
12:00 AM 39.2 °F 35.0 °F 39.2 °F 100% 30.12 in 6.2 mi SSW 5.8 mph - N/A   Mostly Cloudy
12:30 AM 39.2 °F 34.2 °F 39.2 °F 100% 30.09 in 6.2 mi SSW 6.9 mph - N/A   Mostly Cloudy
1:00 AM 38 °F - 36 °F 91% 30.11 in 6 mi SW 6.7 mph - -   Overcast
1:00 AM 39.2 °F 34.2 °F 39.2 °F 100% 30.06 in 6.2 mi SSW 6.9 mph - N/A   Mostly Cloudy
1:30 AM 39.2 °F 33.6 °F 39.2 °F 100% 30.06 in 6.2 mi SW 8.1 mph - N/A   Scattered Clouds
2:00 AM 38 °F - 36 °F 92% 30.09 in 6 mi SW 6.7 mph - -   Overcast
2:00 AM 39.2 °F 33.6 °F 39.2 °F 100% 30.04 in 6.2 mi SW 8.1 mph - N/A Rain Light Rain
2:30 AM 39.2 °F 32.5 °F 39.2 °F 100% 30.04 in 6.2 mi SW 10.4 mph - N/A   Mostly Cloudy
3:00 AM 38 °F - 37 °F 96% 30.05 in 6 mi WSW 6.7 mph - -   Overcast
3:00 AM 39.2 °F 33.0 °F 39.2 °F 100% 30.01 in 6.2 mi SW 9.2 mph - N/A Rain Light Rain
3:30 AM 39.2 °F 33.0 °F 39.2 °F 100% 29.98 in 6.2 mi SW 9.2 mph - N/A   Mostly Cloudy
4:00 AM 38 °F - 38 °F 98% 30.01 in 6 mi SW 6.7 mph - -   Overcast
4:30 AM 39.2 °F 33.0 °F 39.2 °F 100% 29.95 in 5.0 mi SW 9.2 mph - N/A   Mostly Cloudy
5:00 AM 38 °F - 38 °F 98% 29.98 in 6 mi SW 6.7 mph - -   Overcast
5:00 AM 39.2 °F 33.0 °F 39.2 °F 100% 29.95 in 4.3 mi SW 9.2 mph - N/A   Mostly Cloudy
5:30 AM 39.2 °F 33.6 °F 39.2 °F 100% 29.95 in 4.3 mi SW 8.1 mph - N/A   Mostly Cloudy
6:00 AM 38 °F - 37 °F 95% 29.96 in 6 mi SW 6.7 mph - -   Overcast
6:00 AM 39.2 °F 33.0 °F 39.2 °F 100% 29.92 in 4.3 mi SW 9.2 mph - N/A   Mostly Cloudy
6:30 AM 39.2 °F 33.6 °F 39.2 °F 100% 29.92 in 2.2 mi SW 8.1 mph - N/A   Mostly Cloudy
7:00 AM 37 °F - 36 °F 96% 29.93 in 6 mi SW 4.5 mph - -   Overcast
7:00 AM 39.2 °F 33.6 °F 37.4 °F 93% 29.92 in 1.9 mi SW 8.1 mph - N/A   Mostly Cloudy
7:30 AM 39.2 °F 33.0 °F 39.2 °F 100% 29.89 in 5.0 mi SW 9.2 mph - N/A   Mostly Cloudy
8:00 AM 38 °F - 36 °F 91% 29.91 in 6 mi SW 6.7 mph - -   Overcast
8:00 AM 39.2 °F 33.0 °F 39.2 °F 100% 29.89 in 3.1 mi SW 9.2 mph - N/A Rain Light Rain
9:00 AM 38 °F - 36 °F 91% 29.91 in 6 mi SW 4.5 mph - -   Overcast
9:00 AM 39.2 °F 35.0 °F 39.2 °F 100% 29.89 in 3.1 mi SW 5.8 mph - N/A   Mostly Cloudy
9:30 AM 39.2 °F 37.0 °F 39.2 °F 100% 29.86 in 3.1 mi SW 3.5 mph - N/A   Mostly Cloudy
10:00 AM 41.0 °F - 39.2 °F 93% 29.86 in 3.1 mi Variable 2.3 mph - N/A   Mostly Cloudy
10:30 AM 41.0 °F - 41.0 °F 100% 29.86 in 3.1 mi Variable 2.3 mph - N/A Rain Light Rain
11:00 AM 40 °F - 36 °F 78% 29.89 in 6 mi WSW 2.2 mph - - Rain Light Rain
11:00 AM 41.0 °F - 41.0 °F 100% 29.86 in 2.5 mi Variable 2.3 mph - N/A Rain Light Rain
11:30 AM 41.0 °F - 41.0 °F 100% 29.86 in 2.5 mi Variable 2.3 mph - N/A Rain Light Rain
12:00 PM 40 °F - 36 °F 80% 29.88 in 6 mi WSW 2.2 mph - - Rain Light Rain
12:00 PM 41.0 °F 39.0 °F 39.2 °F 93% 29.86 in 1.9 mi NNW 3.5 mph - N/A Rain Light Rain
12:30 PM 41.0 °F 39.0 °F 41.0 °F 100% 29.86 in 3.7 mi NW 3.5 mph - N/A Rain Light Rain
1:00 PM 42 °F - 38 °F 79% 29.88 in 6 mi NW 2.2 mph - - Rain Light Rain
1:00 PM 41.0 °F 38.0 °F 41.0 °F 100% 29.86 in 6.2 mi NW 4.6 mph - N/A   Mostly Cloudy
1:30 PM 42.8 °F 40.1 °F 41.0 °F 93% 29.86 in 6.2 mi NNW 4.6 mph - N/A Rain Light Rain
2:00 PM 41 °F - 36 °F 78% 29.87 in 6 mi NNW 4.5 mph - - Rain Light Rain
2:00 PM 44.6 °F 41.4 °F 42.8 °F 93% 29.83 in 6.2 mi NW 5.8 mph - N/A   Mostly Cloudy
2:30 PM 44.6 °F 40.2 °F 42.8 °F 93% 29.83 in 6.2 mi NW 8.1 mph - N/A   Mostly Cloudy
3:00 PM 45 °F - 36 °F 63% 29.86 in 6 mi NNW 6.7 mph - -   Mostly Cloudy
3:00 PM 44.6 °F 40.2 °F 42.8 °F 93% 29.83 in 6.2 mi North 8.1 mph - N/A   Mostly Cloudy
3:30 PM 41.0 °F 33.1 °F 41.0 °F 100% 29.86 in 6.2 mi North 15.0 mph - N/A Thunderstorm Light Thunderstorms with Small Hail
4:00 PM 39 °F - 32 °F 69% 29.88 in 6 mi NNE 11.2 mph - - Rain Light Rain Showers
4:00 PM 37.4 °F 28.5 °F 37.4 °F 100% 29.86 in 6.2 mi NNE 15.0 mph - N/A Rain Light Rain Showers
4:30 PM 39.2 °F 32.0 °F 37.4 °F 93% 29.86 in 6.2 mi NNE 11.5 mph - N/A Rain Light Rain Showers
5:00 PM 37 °F - 34 °F 84% 29.88 in 6 mi NE 8.9 mph - - Rain Light Rain Showers
5:30 PM 39.2 °F 33.6 °F 39.2 °F 100% 29.86 in 6.2 mi East 8.1 mph - N/A   Mostly Cloudy
6:00 PM 39 °F - 34 °F 76% 29.89 in 6 mi East 4.5 mph - - Rain Light Rain Showers
6:00 PM 39.2 °F 35.0 °F 39.2 °F 100% 29.89 in 6.2 mi ENE 5.8 mph - N/A   Scattered Clouds
6:30 PM 39.2 °F 37.0 °F 37.4 °F 93% 29.89 in 6.2 mi East 3.5 mph - N/A   Partly Cloudy
7:00 PM 38 °F - 35 °F 85% 29.90 in 6 mi ENE 2.2 mph - -   Overcast
7:00 PM 39.2 °F 35.0 °F 39.2 °F 100% 29.89 in - East 5.8 mph - N/A   Clear
7:30 PM 39.2 °F - 37.4 °F 93% 29.89 in - Variable 2.3 mph - N/A   Clear
8:00 PM 37 °F - 34 °F 86% 29.91 in 6 mi NW 2.2 mph - -   Partly Cloudy
8:00 PM 39.2 °F 37.0 °F 37.4 °F 93% 29.89 in - West 3.5 mph - N/A   Clear
8:30 PM 39.2 °F 35.9 °F 37.4 °F 93% 29.89 in - West 4.6 mph - N/A   Clear
9:00 PM 37 °F - 35 °F 90% 29.91 in 6 mi NW 4.5 mph - -   Overcast
9:00 PM 39.2 °F 37.0 °F 37.4 °F 93% 29.89 in - West 3.5 mph - N/A   Clear
9:30 PM 39.2 °F 37.0 °F 39.2 °F 100% 29.89 in - West 3.5 mph - N/A   Clear
10:00 PM 37 °F - 35 °F 90% 29.92 in 6 mi West 4.5 mph - -   Overcast
10:00 PM 39.2 °F - 37.4 °F 93% 29.92 in - West 1.2 mph - N/A   Clear
10:30 PM 39.2 °F - 37.4 °F 93% 29.92 in - West 2.3 mph - N/A   Clear
11:00 PM 35 °F - 34 °F 94% 29.93 in 6 mi Calm Calm - -   Mostly Cloudy
11:00 PM 39.2 °F - 37.4 °F 93% 29.92 in - Variable 1.2 mph - N/A   Clear
11:30 PM 37.4 °F - 37.4 °F 100% 29.92 in - WNW 2.3 mph - N/A   Clear